sat.trackr.live / text

‹ back to catalog

STARLINK-3778

NORAD 52276 · 2022-041R

PAYLOAD ACTIVE UNKNOWN

§ Identity

Operator
Country
US
Launch date
2022-04-21
Launch site
AFETR
Launch vehicle
Mass (kg)
RCS (m²)

Purposes: comms

External: N2YO · Heavens-Above · Gunter

§ Orbital elements

Epoch: 2026-09-19T20:17:20.914080Z

Period
93.90 min
Inclination
53.1594°
Eccentricity
0.0000888
Mean motion
15.33550428 rev/d
Perigee alt
464.6 km
Apogee alt
465.8 km
Semi-major
6,843.4 km
B*
3.1973e-6
RAAN
310.8167°
Arg perigee
77.1519°
Mean anomaly
282.9582°
Rev number
24,376

§ Raw data

STARLINK-37781 52276U 22041R   26262.84538095 -.00000267  00000+0  31973-5 0  99942 52276  53.1594 310.8167 0000888  77.1519 282.9582 15.33550428243765

JSON: /api/v1/satellites/52276 · /tle

For live sub-satellite position, see the globe view (requires WebGL).

§ Visibility from observer

Set your observer location to see the next 7 days of passes ≥ 10°. The values pass through the URL so the page stays shareable.

No JS? Fill the form by hand. The geolocation button needs JavaScript.